Bryce Canyon, UT

9:20 AM MDT on April 23, 2017 (GMT -0600)
Bryce Canyon

Weather History for KBCE - December, 2012

Change the Weather History Date:

Thursday, December 6, 2012

  Actual Average Record
Temperature  
Mean Temperature 38 °F -  
Max Temperature 50 °F 40 °F 57 °F (1977)
Min Temperature 24 °F 12 °F -26 °F (2013)
Degree Days  
Heating Degree Days 26    
Moisture  
Dew Point 29 °F    
Average Humidity 77    
Maximum Humidity 96    
Minimum Humidity 43    
Precipitation  
Precipitation 0.00 in - - ()
Sea Level Pressure  
Sea Level Pressure 29.95 in    
Wind  
Wind Speed 6 mph (WNW)    
Max Wind Speed 15 mph    
Max Gust Speed -    
Visibility 10 miles    
Events      
Averages and records for this station are not official NWS values.
T = Trace of Precipitation, MM = Missing Value Source: NWS Daily Summary

Daily Weather History Graph

Daily Weather History Graph

Search for Another Location

Airport or City:

Trip Planner

Search our weather history database for the weather conditions in past years. The results will help you decide how hot, cold, wet, or windy it might be!

Date:

Astronomy

Dec. 06, 2012 Rise Set
Actual Time 7:30 AM MST 5:09 PM MST
Civil Twilight 7:00 AM MST 5:38 PM MST
Nautical Twilight 6:28 AM MST 6:11 PM MST
Astronomical Twilight 5:56 AM MST 6:43 PM MST
Moon No Moon Rise 12:31 PM MST (12/6)
Length of Visible Light 10h 37m
Length of Day
9h 39m
Waning Gibbous, 48% of the Moon is Illuminated
Dec 6
Waning Gibbous
Dec 13
New
Dec 19
First Quarter
Dec 28
Full
Jan 4
Last Quarter

Hourly Weather History & Observations

Time (MST) Temp. Windchill Dew Point Humidity Pressure Visibility Wind Dir Wind Speed Gust Speed Precip Events Conditions
12:53 AM 33.1 °F 26.9 °F 25.0 °F 72% 29.94 in 10.0 mi West 6.9 mph - N/A   Mostly Cloudy
1:53 AM 30.0 °F 21.7 °F 24.1 °F 79% 29.94 in 10.0 mi West 9.2 mph - N/A   Mostly Cloudy
2:53 AM 33.1 °F 26.1 °F 26.1 °F 75% 29.91 in 10.0 mi West 8.1 mph - N/A   Overcast
3:53 AM 33.1 °F 26.9 °F 27.0 °F 78% 29.91 in 10.0 mi West 6.9 mph - N/A   Overcast
4:53 AM 37.0 °F 34.5 °F 30.9 °F 79% 29.90 in 10.0 mi WSW 3.5 mph - N/A   Overcast
5:53 AM 35.1 °F 30.1 °F 33.1 °F 92% 29.93 in 10.0 mi NW 5.8 mph - 0.00 in   Mostly Cloudy
6:43 AM 35.6 °F 32.8 °F 33.8 °F 93% 30.07 in 10.0 mi NNW 3.5 mph - N/A   Overcast
6:53 AM 37.0 °F 32.4 °F 34.0 °F 89% 29.97 in 10.0 mi North 5.8 mph - N/A   Overcast
7:13 AM 33.8 °F 27.7 °F 30.2 °F 87% 30.08 in 10.0 mi North 6.9 mph - N/A   Mostly Cloudy
7:44 AM 33.8 °F - 28.4 °F 81% 30.08 in 10.0 mi Calm Calm - N/A   Overcast
7:53 AM 33.1 °F - 28.9 °F 85% 29.99 in 10.0 mi Calm Calm - N/A   Overcast
8:19 AM 33.8 °F - 28.4 °F 81% 30.09 in 10.0 mi Calm Calm - N/A   Overcast
8:53 AM 34.0 °F 29.8 °F 30.0 °F 85% 30.00 in 10.0 mi NE 4.6 mph - N/A   Mostly Cloudy
9:40 AM 39.2 °F 35.9 °F 32.0 °F 75% 30.10 in 10.0 mi NNE 4.6 mph - N/A   Mostly Cloudy
9:53 AM 39.9 °F - 32.0 °F 73% 29.99 in 10.0 mi Calm Calm - N/A   Mostly Cloudy
10:22 AM 42.8 °F - 33.8 °F 70% 30.09 in 10.0 mi Calm Calm - N/A   Scattered Clouds
10:53 AM 45.0 °F - 33.1 °F 63% 29.94 in 10.0 mi Calm Calm - N/A   Clear
11:53 AM 46.9 °F - 30.9 °F 54% 29.88 in 10.0 mi East 6.9 mph - N/A   Clear
12:53 PM 50.0 °F - 30.9 °F 48% 29.85 in 10.0 mi Variable 3.5 mph - N/A   Scattered Clouds
1:53 PM 50.0 °F - 28.0 °F 43% 29.85 in 10.0 mi NW 6.9 mph - N/A   Partly Cloudy
2:53 PM 50.0 °F - 30.0 °F 46% 29.81 in 10.0 mi NE 6.9 mph - N/A   Mostly Cloudy
3:53 PM 46.9 °F - 32.0 °F 56% 29.82 in 10.0 mi SE 15.0 mph - N/A   Overcast
4:53 PM 43.0 °F 39.5 °F 32.0 °F 65% 29.83 in 10.0 mi West 5.8 mph - N/A   Mostly Cloudy
5:53 PM 34.0 °F 31.0 °F 28.9 °F 82% 29.88 in 10.0 mi West 3.5 mph - N/A   Clear
6:53 PM 27.0 °F - 24.1 °F 89% 29.92 in 10.0 mi Calm Calm - N/A   Clear
7:53 PM 30.0 °F 21.7 °F 28.0 °F 92% 29.93 in 10.0 mi West 9.2 mph - N/A   Clear
8:53 PM 28.0 °F 19.3 °F 26.1 °F 92% 29.95 in 10.0 mi West 9.2 mph - N/A   Clear
9:53 PM 28.0 °F 20.8 °F 26.1 °F 92% 29.92 in 10.0 mi West 6.9 mph - N/A   Clear
10:53 PM 27.0 °F 16.7 °F 25.0 °F 92% 29.90 in 10.0 mi West 11.5 mph - N/A   Clear
11:53 PM 24.1 °F 19.7 °F 23.0 °F 96% 29.90 in 10.0 mi WNW 3.5 mph - N/A   Clear